Regional Weather Roundup
Issued by NWS

Home | Current Version | Previous Version | Text Only | Print | Product List | Glossary On
Versions: 1 2 3 4 5 6 7 8 9 10 11 12 13 14 15 16 17 18 19 20 21 22 23 24 25 26 27 28 29 30 31 32 33 34 35 36 37 38 39 40 41 42 43 44 45 46 47 48 49 50
000
ASUS43 KMKX 040421
RWRWI

WISCONSIN REGIONAL WEATHER ROUNDUP
NATIONAL WEATHER SERVICE MILWAUKEE/SULLIVAN WI
1000 PM CST TUE MAR 03 2015

NOTE: "FAIR" INDICATES FEW OR NO CLOUDS BELOW 12,000 FEET WITH NO
SIGNIFICANT WEATHER AND/OR OBSTRUCTIONS TO VISIBILITY.

WIZ001-002-006>008-014>016-023>028-040500-
NORTHWEST WISCONSIN

CITY           SKY/WX    TMP DP  RH WIND       PRES   REMARKS
SUPERIOR ARPT  CLEAR      8  -4  57 W18G24    29.90R WCI -11
ASHLAND        MOCLDY    11   1  64 W14G21    29.83R WCI  -5
HAYWARD        PTCLDY    11  -2  56 NW9G16    29.83R WCI  -2
SIREN          CLEAR     10  -1  61 NW12G21   29.91R WCI  -5
CUMBERLAND     PTCLDY    10   1  67 W16       29.87R WCI  -7
RICE LAKE      PTCLDY    12   2  64 W14G21    29.90R WCI  -4
CHETEK         PTCLDY    12   2  65 W9        29.89R WCI   0
LADYSMITH      CLEAR     15   5  64 W15G22    29.85R WCI  -1
EAU CLAIRE     CLEAR     13   2  61 NW16G25   29.90R WCI  -3
MENOMONIE      CLEAR     13   2  60 W20G32    29.93R HAZE    WCI  -5
NEW RICHMOND   PTCLDY    10  -1  60 NW23G32   29.94R WCI -10
OSCEOLA        CLEAR     10  -1  61 W14G28    29.99R WCI  -6
$$

WIZ003>005-009-010-017-018-040500-
NORTH CENTRAL WISCONSIN

CITY           SKY/WX    TMP DP  RH WIND       PRES   REMARKS
MANITOWISH WTR PTCLDY    11   3  68 NW9       29.72R WCI  -1
ARBOR VITAE    PTCLDY    17   6  61 NW12G18   29.72R WCI   4
WOODRUFF       PTCLDY    17   6  61 NW12G18   29.72R WCI   4
RHINELANDER    CLEAR     16   4  59 W13G24    29.72R WCI   2
EAGLE RIVER    PTCLDY    15   4  63 W10G18    29.69R WCI   2
LAND O LAKES   CLOUDY    17   8  67 W10G20    29.69R WCI   5
PHILLIPS       CLEAR     13   1  58 W9G17     29.77R WCI   0
TOMAHAWK       CLEAR     16   6  65 W3        29.74R
MEDFORD        FAIR      16   5  61 W12G24    29.77R WCI   3
MERRILL        CLEAR     19   6  55 NW14      29.76R WCI   6
$$

WIZ029-030-035-036-043>047-040500-
CENTRAL WISCONSIN

CITY           SKY/WX    TMP DP  RH WIND       PRES   REMARKS
WAUSAU         CLEAR     20   5  52 NW13G26   29.75R WCI   7
MOSINEE        CLEAR     19   9  63 W16G24    29.78R WCI   5
MARSHFIELD     PTCLDY    19   8  62 NW17G24   29.80R WCI   4
STEVENS POINT  CLEAR     20   7  56 W12G18    29.79R WCI   8
WAUPACA        CLEAR     27  14  56 W12G25    29.78R WCI  17
WAUTOMA        CLOUDY    28  18  66 W17G25    29.80R WCI  16
WISC RAPIDS    PTCLDY    23  10  57 W14       29.82R WCI  11
CAMP DOUGLAS   PTCLDY    23  14  68 W16G24    29.83R WCI  10
$$

WIZ011>013-019>022-031-037>040-048>050-040500-
NORTHEAST WISCONSIN

CITY           SKY/WX    TMP DP  RH WIND       PRES   REMARKS
ANTIGO         CLOUDY    19  11  69 NW17      29.71R WCI   4
SHAWANO        CLEAR     28  17  64 W9G18     29.75R WCI  19
OCONTO         CLOUDY    25  19  78 W7        29.73R WCI  18
STURGEON BAY   CLEAR     25  18  74 W12G18    29.74R WCI  14
GREEN BAY      PTCLDY    27  17  66 W13       29.75R WCI  16
MANITOWOC      CLOUDY    29  21  72 NW9       29.76R WCI  20
APPLETON       PTCLDY    27  14  59 W15       29.76R WCI  15
CLINTONVILLE   PTCLDY    27  14  59 NW15G21   29.76R WCI  15
OSHKOSH        CLOUDY    29  18  63 W6        29.76R WCI  23
$$

WIZ032>034-041-042-053>061-040500-
SOUTHWEST WISCONSIN

CITY           SKY/WX    TMP DP  RH WIND       PRES   REMARKS
LA CROSSE      CLEAR     18   8  65 NW17G23   29.93R WCI   3
SPARTA         CLEAR     20  11  69 W9G20     29.88R WCI   9
VIROQUA        CLEAR     17  10  74 NW22      29.86R WCI  -1
BOSCOBEL       PTCLDY    23  13  65 W10G20    29.92R WCI  12
PRAIRIE DU CHI PTCLDY    18   8  66 W21G32    29.94R WCI   1
PLATTEVILLE    MOCLDY    21  16  82 W21G26    29.88R WCI   5
$$

WIZ056-057-062-063-064-067-068-040500-
SOUTH CENTRAL WISCONSIN

CITY           SKY/WX    TMP DP  RH WIND       PRES   REMARKS
REEDSBURG      CLOUDY    26  17  67 NW9G17    29.83R WCI  17
BARABOO/DELLS  CLOUDY    27  17  66 W12G17    29.82R WCI  16
LONE ROCK      CLOUDY    28  18  66 NW13      29.87R WCI  17
MINERAL POINT  MOCLDY    28  21  74 W16G23    29.84R WCI  17
MADISON        CLOUDY    30  20  66 VRB6      29.82R WCI  24
MIDDLETON      MOCLDY    30  18  60 NW13      29.82R WCI  20
WATERTOWN      CLOUDY    30  22  73 W12G18    29.81R WCI  20
MONROE         CLOUDY    30  25  80 W14G20    29.83R WCI  20
JANESVILLE     CLOUDY    32  25  74 W12       29.84R WCI  23
$$

WIZ051-052-058>065-066-070>072-040500-
SOUTHEAST WISCONSIN

CITY           SKY/WX    TMP DP  RH WIND       PRES   REMARKS
MILWAUKEE      CLOUDY    30  22  72 SW8       29.82R WCI  22
WAUKESHA       CLOUDY    28  23  80 W12       29.82R WCI  18
MILWAUKEE/TIMM CLOUDY    30  23  74 W7        29.81R WCI  23
RACINE         CLOUDY    30  22  72 SW6       29.84R WCI  24
BURLINGTON     CLOUDY    27  23  83 SW7       29.83R WCI  20
KENOSHA        CLOUDY    30  24  78 W9        29.83R WCI  22
FOND DU LAC    CLOUDY    29  20  69 W16G24    29.78R WCI  17
SHEBOYGAN      CLOUDY    30  20  66 W13       29.77R WCI  20
WEST BEND      CLOUDY    30  21  69 W7        29.79R WCI  23
JUNEAU         CLOUDY    29  21  71 W7G16     29.81R WCI  22
$$

LSZ147-162-040500-
LAKE SUPERIOR

STATION/POSITION TIME  TEMP    WIND        PRES    WAVE
                       AIR SEA DIR/SP/G            HT/PER
                 (UTC) (F)     (DEG/KT/KT) (MB)    (FT/S)
DEVILS ISLAND    0400   14     300/ 26/ 32 1010.6R
PORT WING        0340   13     280/ 21/ 29 1010.8R
SAXON HARBOR     0400   14     290/ 15/ 22 1010.2R
$$

LMZ867-665-643>646-040500-
LAKE MICHIGAN

STATION/POSITION TIME  TEMP    WIND        PRES    WAVE
                       AIR SEA DIR/SP/G            HT/PER
                 (UTC) (F)     (DEG/KT/KT) (MB)    (FT/S)
NORTHPORT PIER   0402   26     290/  9/ 14 1005.8R
SISTER BAY       0343   21     260/ 11/ 12   N/A
KEWAUNEE LAKESHO 0300   29     260/  9/ 17 1005.9R
SHEBOYGAN LAKESH 0400   31     290/ 10/ 13 1009.5R
PORT WASHINGTON  0300   31     280/  2/  4 1008.8
MILWAUKEE LAKESH 0400   31     250/  8/ 11   N/A
KENOSHA   LAKESH 0400   31     240/  4/  6 1010.2R
$$

TC  - TEMPERATURE IN CELSIUS
VSB - VISIBILITY IN STATUTE MILES
WCI - WIND CHILL INDEX
HX  - HEAT INDEX




USA.gov is the U.S. government's official web portal to all federal, state and local government web resources and services.